Regional Weather Roundup
Issued by NWS Boston, MA

Home | Current Version | Previous Version | Text Only | Print | Product List | Glossary On
Versions: 1 2 3 4 5 6 7 8 9 10 11 12 13 14 15 16 17 18 19 20 21 22 23 24 25 26 27 28 29 30 31 32 33 34 35 36 37 38 39 40 41 42 43 44 45 46 47 48 49 50
000
ASUS41 KBOX 230310
RWRBOX

REGIONAL WEATHER ROUNDUP
NATIONAL WEATHER SERVICE TAUNTON MA
1100 PM EDT MON SEP 22 2014

NOTE:  "FAIR" INDICATES FEW OR NO CLOUDS BELOW 12,000 FEET WITH NO
SIGNIFICANT WEATHER AND/OR OBSTRUCTIONS TO VISIBILITY.  THE FOLLOWING
OBSERVATION LOCATIONS DO NOT REPORT PRESENT WEATHER...PROVINCETOWN...
SMITHFIELD...BLOCK ISLAND...KEENE...AND OXFORD.

MAZALL-230400-
EASTERN MASSACHUSETTS

CITY           SKY/WX    TMP DP  RH WIND       PRES   REMARKS
BOSTON         CLEAR     55  38  52 W10       30.08R
BEVERLY        CLEAR     52  36  54 NW12      30.07R
LAWRENCE       CLEAR     51  37  58 NW3       30.09R
BEDFORD        CLEAR     48  39  71 SW3       30.07R
BLUE HILL        N/A     50  38  63 NW7       30.07R
NORWOOD        CLEAR     52  38  58 W6        30.08R
MARSHFIELD     NOT AVBL
PLYMOUTH       CLEAR     54  37  52 NW13G21   30.07R
TAUNTON        CLEAR     53  38  56 NW7       30.08R
NEW BEDFORD    CLEAR     53  39  59 NW7G16    30.07R
$$

MAZALL-230400-
CAPE COD AND THE ISLANDS

CITY           SKY/WX    TMP DP  RH WIND       PRES   REMARKS
FALMOUTH       CLEAR     55  39  54 NW15G24   30.06R
HYANNIS        CLEAR     58  41  53 NW10G29   30.03R
CHATHAM        CLEAR     58  42  55 NW7G20    30.04R
PROVINCETOWN   CLEAR     57  43  58 NW21G30   30.05R
NANTUCKET      CLEAR     60  43  53 NW14G23   30.05R
MARTHAS VNYRD  CLEAR     56  41  57 NW16G25   30.06R
$$

MAZALL-230400-
CENTRAL AND WESTERN MASSACHUSETTS

CITY           SKY/WX    TMP DP  RH WIND       PRES   REMARKS
WORCESTER      CLEAR     47  38  71 W9        30.08R
FITCHBURG      CLEAR     47  39  74 CALM      30.09R
ORANGE         CLEAR     42  39  89 CALM      30.10R
SPRINGFIELD    CLEAR     47  40  76 NW2       30.10R
WESTFIELD      CLEAR     51  38  60 N7        30.11R
NORTH ADAMS    CLOUDY    50  40  68 W8        30.13R
PITTSFIELD     CLEAR     46  39  76 NW8       30.12R
$$

RIZALL-230400-
RHODE ISLAND

CITY           SKY/WX    TMP DP  RH WIND       PRES   REMARKS
PROVIDENCE     PTCLDY    52  39  61 NW7       30.10R
NEWPORT        CLEAR     55  39  54 NW15G24   30.09R
BLOCK ISLAND   CLEAR     55  39  54 NW16G23   30.10R
WESTERLY       PTCLDY    54  39  57 NW9       30.10R
$$

CTZALL-230400-
CONNECTICUT

CITY           SKY/WX    TMP DP  RH WIND       PRES   REMARKS
BRADLEY INTL   CLEAR     52  38  58 NW7       30.11R
HARTFORD       CLEAR     54  37  52 W6        30.13R
BRIDGEPORT     PTCLDY    54  41  61 NW8       30.14R
DANBURY        CLEAR     45  40  82 SW6       30.16R
GROTON         PTCLDY    53  40  61 NW14      30.10R
NEW HAVEN      CLEAR     56  40  55 NW10      30.14R
CHESTER        FAIR      52  39  62 NW5       30.13R
MERIDEN        CLEAR     47  40  76 CALM      30.13R
WILLIMANTIC    CLEAR     51  39  63 SW3       30.11R
OXFORD         CLEAR     48  36  61 NW6       30.15R
$$

MEZ002-015-021-024-NHZ003-005-008-011-012-014-VTZ005-008-230400-
NORTHERN NEW ENGLAND

CITY           SKY/WX    TMP DP  RH WIND       PRES   REMARKS
PORTLAND ME    CLEAR     50  36  58 W15       30.02R
BANGOR ME      PTCLDY    50  36  58 NW9       29.95R
CONCORD NH     CLEAR     49  36  61 W7        30.06R
MANCHESTER NH  CLEAR     52  35  52 NW5       30.06R
NASHUA NH      CLEAR     51  38  61 CALM      30.09R
PORTSMOUTH NH  CLEAR     52  37  56 W14       30.04R
JAFFREY NH     CLEAR     48  36  63 VRB3      30.08R
KEENE NH       FAIR      45  34  65 CALM      30.10R
BURLINGTON VT  MOCLDY    51  37  58 W8        30.11R
MT. WASHINGTON FOG       25  25 100 W55G72      N/A  VSB 1/16WCI   3
$$

NYZ052-076-230400-
EASTERN NEW YORK

CITY           SKY/WX    TMP DP  RH WIND       PRES   REMARKS
ALBANY         PTCLDY    50  41  71 NW3       30.15R
NEW YORK CITY  PTCLDY    58  40  51 NW14      30.15R
$$

ANZALL-230400-
MARINE OBSERVATIONS

STATION/POSITION TIME  TEMP    WIND        PRES    VSBY  WAVE
                       AIR SEA DIR/SP/G                  HT/PER
                 (UTC) (F)     (DEG/KT/KT) (MB)    (MI)  (FT/S)
BOSTON BUOY      0250   56 60  320/ 27/ 33 1017.0R         4/ 4
BUZZARDS BAY     0200          310/ 24/ 27 1018.1R
NANTUCKET SOUND  0250   61 67  320/ 21/ 25 1016.4R         3/ 4
MASS BAY-STELLWA 0204   59 61  290/ 17/ 21   N/A    1 7/8  5/11
ISLE OF SHOALS   0300   54     310/ 21/ 23 1016.8R
S OF BLOCK IS    0208      67                N/A           8/11
$$

......................KEY.........................
  SKY/WX - SKY CONDITION/PRESENT WEATHER
  TMP    - TEMPERATURE IN FAHRENHEIT
  DWPT   - DEWPOINT IN FAHRENHEIT
  RH     - RELATIVE HUMIDITY IN PERCENT
  WIND   - DIRECTION AND SPEED IN MPH
  PRES   - MEAN SEA LEVEL PRESSURE IN INCHES OF HG
  WCI    - WIND CHILL INDEX
  VSB    - VISIBILITY IN MILES
  HX     - HEAT INDEX
  TC     - TEMPERATURE IN CELSIUS
  VRB    - VARIABLE WIND DIRECTION
  N/A    - NOT AVAILABLE


USA.gov is the U.S. government's official web portal to all federal, state and local government web resources and services.